Simultaneous Nadir Overpasses (SNOs) Predictions

Prediction of SNOs over PacNW region [( 10.00, 139.50) to ( 22.70, 165.60)] between AQUA and NPP Satellites:

Table of predicted SNOs over PacNW region for the next 30.0 days since TLE Epoch: 3/20/2020
Index Date (AQUA) Time (AQUA) AQUA Lat,Lon Date (NPP) Time (NPP) NPP Lat,Lon Distance(km) Time Diff (sec)
1 03/21/2020 15:59:37 22.63, 147.48 03/21/2020 16:01:26 23.30, 144.58 306.11 109
2 03/29/2020 15:10:12 22.61, 159.83 03/29/2020 15:10:44 23.18, 157.23 273.86 32
3 04/06/2020 15:59:40 22.60, 147.47 04/06/2020 16:01:29 23.28, 144.56 306.93 109
4 04/14/2020 15:10:13 22.59, 159.83 04/14/2020 15:10:46 23.19, 157.23 275.15 33




NCC Satellite Simultaneous Nadir Overpasses (SNOs) Prediction Service
